sat.trackr.live / text

‹ back to catalog

STARLINK-36200

NORAD 67101 · 2025-298AC

PAYLOAD ACTIVE UNKNOWN

§ Identity

Operator
Country
US
Launch date
2025-12-14
Launch site
AFWTR
Launch vehicle
Mass (kg)
RCS (m²)

Purposes: comms

External: N2YO · Heavens-Above · Gunter

§ Orbital elements

Epoch: 2026-09-19T23:04:36.920352Z

Period
96.11 min
Inclination
69.9994°
Eccentricity
0.0003674
Mean motion
14.98333700 rev/d
Perigee alt
569.5 km
Apogee alt
574.6 km
Semi-major
6,950.2 km
B*
1.8031e-4
RAAN
244.7772°
Arg perigee
269.4579°
Mean anomaly
90.6159°
Rev number
4,231

§ Raw data

STARLINK-362001 67101U 25298AC  26262.96153843  .00002059  00000+0  18031-3 0  99992 67101  69.9994 244.7772 0003674 269.4579  90.6159 14.98333700 42316

JSON: /api/v1/satellites/67101 · /tle

For live sub-satellite position, see the globe view (requires WebGL).

§ Visibility from observer

Set your observer location to see the next 7 days of passes ≥ 10°. The values pass through the URL so the page stays shareable.

No JS? Fill the form by hand. The geolocation button needs JavaScript.